Overview Statistics Trail Chart Weather Telemetry Raw packets
 

This is the latest recevied weather packets stored in our database for station/object DG1ROH. If no packets are shown the sender has not sent any weather packets the latest 10 day(s).

<< 209 210 211 212 213 214 215 >>
Time Temp. Humidity Pressure Rain* Wind** Luminosity Snow
1777110045 12.78° C 64% 1013.1 hPa 0 mm - 649 W/m² -
1777109923 12.78° C 64% 1013.2 hPa 0 mm - 654 W/m² -
1777109803 12.78° C 64% 1013.1 hPa 0 mm - 647 W/m² -
1777109683 12.78° C 66% 1013 hPa 0 mm - 643 W/m² -
1777109563 12.78° C 66% 1013.1 hPa 0 mm - 642 W/m² -
1777109442 12.78° C 67% 1013.2 hPa 0 mm - 640 W/m² -
1777109321 12.22° C 66% 1013 hPa 0 mm - 636 W/m² -
1777109201 12.22° C 66% 1013 hPa 0 mm - 635 W/m² -
1777109081 12.22° C 66% 1013.1 hPa 0 mm - 633 W/m² -
1777108961 12.78° C 67% 1013.1 hPa 0 mm - 643 W/m² -
1777108843 12.22° C 68% 1013.1 hPa 0 mm - 631 W/m² -
1777108720 12.22° C 66% 1013.1 hPa 0 mm - 629 W/m² -
1777108601 12.22° C 67% 1013.3 hPa 0 mm - 622 W/m² -
1777108481 12.22° C 65% 1013.2 hPa 0 mm - 626 W/m² -
1777108361 12.22° C 64% 1013.1 hPa 0 mm - 619 W/m² -
1777108242 12.78° C 66% 1013.1 hPa 0 mm - 591 W/m² -
1777108121 12.78° C 67% 1013.1 hPa 0 mm - 619 W/m² -
1777108001 12.22° C 66% 1013.1 hPa 0 mm - 613 W/m² -
1777107881 12.22° C 66% 1013.2 hPa 0 mm - 594 W/m² -
1777107761 12.22° C 67% 1013.2 hPa 0 mm - 585 W/m² -
1777107642 12.22° C 69% 1013.2 hPa 0 mm - 599 W/m² -
1777107521 11.67° C 68% 1013.2 hPa 0 mm - 587 W/m² -
1777107395 11.67° C 70% 1013.1 hPa 0 mm - 589 W/m² -
1777107275 11.11° C 70% 1013.3 hPa 0 mm - 596 W/m² -
1777107155 11.11° C 69% 1013.3 hPa 0 mm - 584 W/m² -

* Rain latest hour (hover to see other rain measurements)
** Current wind speed in m/s (hover to see current wind gust speed)